Regional Weather Roundup
Issued by NWS

Home | Current Version | Previous Version | Graphics & Text | Print | Product List | Glossary On
Versions: 1 2 3 4 5 6 7 8 9 10 11 12 13 14 15 16 17 18 19 20 21 22 23 24 25 26 27 28 29 30 31 32 33 34 35 36 37 38 39 40 41 42 43 44 45 46 47 48 49 50
080
ASUS43 KMKX 260611
RWRWI

WISCONSIN REGIONAL WEATHER ROUNDUP
NATIONAL WEATHER SERVICE MILWAUKEE/SULLIVAN WI
100 AM CDT WED APR 26 2017

NOTE: "FAIR" INDICATES FEW OR NO CLOUDS BELOW 12,000 FEET WITH NO
SIGNIFICANT WEATHER AND/OR OBSTRUCTIONS TO VISIBILITY.

WIZ001-002-006>008-014>016-023>028-260700-
NORTHWEST WISCONSIN

CITY           SKY/WX    TMP DP  RH WIND       PRES   REMARKS
SUPERIOR ARPT  LGT RAIN  36  35  96 NE18G28   29.72F WCI  25
6HR MIN TEMP:  36; 6HR MAX TEMP:  40; 6HR PCP:  0.22;

ASHLAND        RAIN      32  31  96 NE20G26   29.75S FOG     WCI  20
6HR MIN TEMP:  32; 6HR MAX TEMP:  40; 6HR PCP:  0.14;

HAYWARD        CLOUDY    34  32  92 NE13      29.65S WCI  25
6HR MIN TEMP:  34; 6HR MAX TEMP:  48; 6HR PCP:  0.28;

SIREN          DRIZZLE   37  35  92 NE10G18   29.63R WCI  30
6HR MIN TEMP:  37; 6HR MAX TEMP:  51; 6HR PCP:  0.22;

CUMBERLAND     CLOUDY    39  37  93 NE15      29.57F WCI  31
RICE LAKE      RAIN      42  41  94 N12       29.59F
6HR MIN TEMP:  42; 6HR MAX TEMP:  57; 6HR PCP:  0.25;

CHETEK         CLOUDY    43  41  95 NE7       29.57S
6HR MIN TEMP:  42; 6HR MAX TEMP:  56; 6HR PCP:  0.23;

LADYSMITH      CLOUDY    43  40  91 N12       29.60F
6HR MIN TEMP:  43; 6HR MAX TEMP:  59; 6HR PCP:  0.14;

EAU CLAIRE     LGT RAIN  50  49  96 NE12      29.51F
6HR MIN TEMP:  50; 6HR MAX TEMP:  56; 6HR PCP:  0.20;

MENOMONIE      LGT RAIN  50  49  98 N9        29.52F
NEW RICHMOND   CLOUDY    46  44  93 NE9       29.55S
6HR MIN TEMP:  46; 6HR MAX TEMP:  54; 6HR PCP:  0.29;

OSCEOLA        CLOUDY    44  44 100 NE10      29.59S
6HR MIN TEMP:  44; 6HR MAX TEMP:  55; 6HR PCP:  0.32;

$$

WIZ003>005-009-010-017-018-260700-
NORTH CENTRAL WISCONSIN

CITY           SKY/WX    TMP DP  RH WIND       PRES   REMARKS
MANITOWISH WTR DRIZZLE   34  34 100 NE7       29.65F WCI  28
6HR MIN TEMP:  34; 6HR MAX TEMP:  56; 6HR PCP:  0.02;

ARBOR VITAE    RAIN      39  38  94 N7        29.62F WCI  34
6HR MIN TEMP:  39; 6HR MAX TEMP:  60; 6HR PCP:  0.10;

WOODRUFF       RAIN      39  38  94 N7        29.62F WCI  34
6HR MIN TEMP:  39; 6HR MAX TEMP:  60; 6HR PCP:  0.10;

RHINELANDER    LGT RAIN  48  48 100 NE8       29.60F
6HR MIN TEMP:  48; 6HR MAX TEMP:  68; 6HR PCP:  0.13;

EAGLE RIVER    LGT RAIN  40  40 100 NE9       29.63F WCI  34
6HR MIN TEMP:  40; 6HR MAX TEMP:  65;

LAND O LAKES   RAIN      37  37  98 N7        29.67F WCI  32
6HR MIN TEMP:  37; 6HR MAX TEMP:  59; 6HR PCP:  0.03;

PHILLIPS       LGT RAIN  39  39 100 NE13      29.60F WCI  32
6HR MIN TEMP:  39; 6HR MAX TEMP:  58; 6HR PCP:  0.12;

TOMAHAWK       RAIN      48  47  95 N8        29.59F
6HR MIN TEMP:  48; 6HR MAX TEMP:  60;

MEDFORD        LGT RAIN  53  51  95 NE10      29.53F
6HR MIN TEMP:  53; 6HR MAX TEMP:  55; 6HR PCP:  0.08;

MERRILL        LGT RAIN  54  54 100 NE9       29.56F
6HR MIN TEMP:  54; 6HR MAX TEMP:  59; 6HR PCP:  0.05;

$$

WIZ029-030-035-036-043>047-260700-
CENTRAL WISCONSIN

CITY           SKY/WX    TMP DP  RH WIND       PRES   REMARKS
WAUSAU         LGT RAIN  56  53  90 NE9       29.51F
6HR MIN TEMP:  56; 6HR MAX TEMP:  61; 6HR PCP:  0.02;

MOSINEE        RAIN      55  52  88 E7        29.53S
MARSHFIELD     LGT RAIN  56  51  84 NE8       29.50F
6HR MIN TEMP:  55; 6HR MAX TEMP:  56; 6HR PCP: TRACE;

STEVENS POINT  LGT RAIN  60  52  75 E8G17     29.51S
6HR MIN TEMP:  58; 6HR MAX TEMP:  64;

WAUPACA        CLOUDY    63  54  72 E12G17    29.51F
6HR MIN TEMP:  63; 6HR MAX TEMP:  68;

WAUTOMA        CLOUDY    64  53  67 E7        29.49F
6HR MIN TEMP:  63; 6HR MAX TEMP:  70;

WISC RAPIDS    CLOUDY    61  53  75 CALM      29.49F
6HR MIN TEMP:  60; 6HR MAX TEMP:  62;

CAMP DOUGLAS   CLOUDY    58  51  80 CALM      29.47F
6HR MIN TEMP:  56; 6HR MAX TEMP:  63; 6HR PCP: TRACE;

$$

WIZ011>013-019>022-031-037>040-048>050-260700-
NORTHEAST WISCONSIN

CITY           SKY/WX    TMP DP  RH WIND       PRES   REMARKS
ANTIGO         LGT RAIN  53  51  94 E12       29.57F
6HR MIN TEMP:  53; 6HR MAX TEMP:  62; 6HR PCP:  0.05;

SHAWANO        DRIZZLE   56  51  85 NE10      29.58R
6HR MIN TEMP:  56; 6HR MAX TEMP:  67; 6HR PCP:  0.01;

OCONTO         CLOUDY    51  45  79 E6        29.58F
6HR MIN TEMP:  51; 6HR MAX TEMP:  60;

STURGEON BAY   CLOUDY    52  45  77 E10       29.59F
6HR MIN TEMP:  50; 6HR MAX TEMP:  61;

GREEN BAY      LGT RAIN  56  53  90 E12       29.56F
6HR MIN TEMP:  56; 6HR MAX TEMP:  65; 6HR PCP:  0.02;

MANITOWOC      CLOUDY    54  48  80 NE3       29.58F
6HR MIN TEMP:  51; 6HR MAX TEMP:  56;

APPLETON       LGT RAIN  59  50  72 SE9       29.52F
CLINTONVILLE   LGT RAIN  57  54  88 E7        29.55S
OSHKOSH        CLOUDY    62  52  69 SE10      29.52F
6HR MIN TEMP:  61; 6HR MAX TEMP:  66;

$$

WIZ032>034-041-042-053>061-260700-
SOUTHWEST WISCONSIN

CITY           SKY/WX    TMP DP  RH WIND       PRES   REMARKS
LA CROSSE      RAIN      57  55  93 CALM      29.48R FOG
6HR MIN TEMP:  57; 6HR MAX TEMP:  62; 6HR PCP:  0.04;

SPARTA         RAIN      56  53  89 CALM      29.49R
6HR MIN TEMP:  55; 6HR MAX TEMP:  58;

VIROQUA        CLOUDY    57  53  88 SW3       29.48F
6HR MIN TEMP:  57; 6HR MAX TEMP:  65; 6HR PCP:  0.01;

BOSCOBEL       LGT RAIN  60  56  86 CALM      29.47S
6HR MIN TEMP:  60; 6HR MAX TEMP:  74; 6HR PCP:  0.01;

PRAIRIE DU CHI RAIN      58  56  94 E3        29.45F
6HR MIN TEMP:  58; 6HR MAX TEMP:  71; 6HR PCP:  0.11;

PLATTEVILLE    CLOUDY    62  55  78 CALM      29.46F
6HR MIN TEMP:  62; 6HR MAX TEMP:  71; 6HR PCP:  0.01;

$$

WIZ056-057-062-063-064-067-068-260700-
SOUTH CENTRAL WISCONSIN

CITY           SKY/WX    TMP DP  RH WIND       PRES   REMARKS
REEDSBURG      CLOUDY    63  52  67 S3        29.47S
6HR MIN TEMP:  63; 6HR MAX TEMP:  70;

BARABOO/DELLS  CLOUDY    64  50  61 S7        29.47S
6HR MIN TEMP:  63; 6HR MAX TEMP:  69;

LONE ROCK      CLOUDY    64  53  67 SW8       29.47R
6HR MIN TEMP:  63; 6HR MAX TEMP:  68; 6HR PCP: TRACE;

MINERAL POINT  DRIZZLE   63  54  72 S7        29.49R
MADISON        CLOUDY    65  50  58 SE9       29.47F
6HR MIN TEMP:  65; 6HR MAX TEMP:  71;

MIDDLETON      CLOUDY    66  51  59 SE7       29.48S
6HR MIN TEMP:  65; 6HR MAX TEMP:  72;

WATERTOWN      CLOUDY    63  53  69 SE9       29.50F
6HR MIN TEMP:  63; 6HR MAX TEMP:  69;

MONROE         CLOUDY    64  50  59 S8        29.47S
JANESVILLE     CLOUDY    68  50  52 SE9G17    29.48S
$$

WIZ051-052-058>065-066-070>072-260700-
SOUTHEAST WISCONSIN

CITY           SKY/WX    TMP DP  RH WIND       PRES   REMARKS
MILWAUKEE      CLOUDY    59  51  75 SE13      29.55F
6HR MIN TEMP:  57; 6HR MAX TEMP:  62;

WAUKESHA       CLOUDY    61  50  67 SE10      29.54F
MILWAUKEE/TIMM CLOUDY    61  48  63 SE10G16   29.55F
RACINE         CLOUDY    56  48  74 S9        29.57F
6HR MIN TEMP:  56; 6HR MAX TEMP:  61;

KENOSHA        CLOUDY    59  51  75 SE8       29.54F
6HR MIN TEMP:  59; 6HR MAX TEMP:  64;

FOND DU LAC    CLOUDY    62  50  64 SE16      29.51F
6HR MIN TEMP:  62; 6HR MAX TEMP:  68;

SHEBOYGAN      CLOUDY    55  50  83 NE6       29.56F
6HR MIN TEMP:  52; 6HR MAX TEMP:  60;

WEST BEND      CLOUDY    59  50  72 SE7       29.54F
JUNEAU         CLOUDY    62  52  71 E9        29.52S
6HR MIN TEMP:  62; 6HR MAX TEMP:  67;

$$

LSZ147-162-260700-
LAKE SUPERIOR

STATION/POSITION TIME  TEMP    WIND        PRES    WAVE
                       AIR SEA DIR/SP/G            HT/PER
                 (UTC) (F)     (DEG/KT/KT) (MB)    (FT/S)
DEVILS ISLAND    0600   33      50/ 29/ 32 1008.7F
SAXON HARBOR     0540   35      40/ 24/ 28 1007.1S
$$

LMZ867-665-643>646-260700-
LAKE MICHIGAN

STATION/POSITION TIME  TEMP    WIND        PRES    WAVE
                       AIR SEA DIR/SP/G            HT/PER
                 (UTC) (F)     (DEG/KT/KT) (MB)    (FT/S)
CHAMBERS ISLAND  0540   40      10/ 10/ 12 1003.4F
N MID LAKE BUOY  0550   41 37   90/ 10/ 10 1004.9F   2/ 4
NORTHPORT PIER   0540   44     110/  2/  5 1003.7F
KEWA



USA.gov is the U.S. government's official web portal to all federal, state and local government web resources and services.